Flight Track Log - Related Links

Times and Time Zones

All times are in EDT time to prevent confusion due to time zone crossing. See the JIA4750 flight status page for this flight to view local times or setup timezone preferences in your user account.

Time Position Orientation Groundspeed Altitude Reporting Facility
EDT Latitude Longitude Course Direction KTS MPH feet Rate Location/Type
Wed 07:10:27 AM 33.5703 -86.7464 88° East 168 193 1,200  Level Atlanta Center
Wed 07:11:33 AM 33.5783 -86.6744 82° East 211 243 3,700 2,169 Climbing Atlanta Center
Wed 07:13:00 AM 33.5667 -86.3909 90° East  Level FlightAware Approximate
Wed 07:13:24 AM 33.5833 -86.5272 88° East 287 330 7,600  Level Atlanta Center
Wed 07:14:00 AM 33.5675 -86.2709 88° East  Level FlightAware Approximate
Wed 07:14:24 AM 33.5872 -86.4328 87° East 279 321 9,700  Level Atlanta Center
Wed 07:15:00 AM 33.5710 -86.1510 88° East  Level FlightAware Approximate
Wed 07:15:24 AM 33.5892 -86.3381 89° East 291 335 10,800  Level Atlanta Center
Wed 07:16:24 AM 33.5936 -86.2036 88° East 319 367 12,900 1,800 Climbing Atlanta Center
Wed 07:17:24 AM 33.5936 -86.0861 90° East 333 383 14,400 1,450 Climbing Atlanta Center
Wed 07:18:24 AM 33.5978 -85.9642 88° East 347 399 15,800 1,400 Climbing Atlanta Center
Wed 07:19:24 AM 33.6017 -85.8394 88° East 359 413 17,200 1,150 Climbing Atlanta Center
Wed 07:20:24 AM 33.6053 -85.7325 88° East 365 420 18,100 900 Climbing Atlanta Center
Wed 07:21:24 AM 33.6092 -85.6003 88° East 372 428 19,000 800 Climbing Atlanta Center
Wed 07:22:24 AM 33.6128 -85.4681 88° East 383 441 19,700 850 Climbing Atlanta Center
Wed 07:23:24 AM 33.6142 -85.3308 89° East 390 449 20,700 650 Climbing Atlanta Center
Wed 07:24:24 AM 33.6178 -85.1964 88° East 401 461 21,000 400 Climbing Atlanta Center
Wed 07:25:24 AM 33.6189 -85.0592 89° East 406 467 21,500 650 Climbing Atlanta Center
Wed 07:26:24 AM 33.6200 -84.9194 89° East 406 467 22,300 800 Climbing Atlanta Center
Wed 07:27:24 AM 33.6253 -84.7597 88° East 418 481 23,100 850 Climbing Atlanta Center
Wed 07:28:24 AM 33.6258 -84.6175 90° East 423 487 24,000 800 Climbing Atlanta Center
Wed 07:29:24 AM 33.6286 -84.4753 89° East 423 487 24,700 500 Climbing Atlanta Center
Wed 07:30:24 AM 33.6561 -84.3333 77° East 423 487 25,000 150 Climbing Atlanta Center
Wed 07:31:24 AM 33.6856 -84.2236 72° East 423 487 25,000  Level Atlanta Center
Wed 07:32:24 AM 33.7294 -84.0714 71° East 433 498 25,000  Level Atlanta Center
Wed 07:33:24 AM 33.7692 -83.9314 71° East 438 504 25,000  Level Atlanta Center
Wed 07:34:24 AM 33.8086 -83.7939 71° East 438 504 25,000  Level Atlanta Center
Wed 07:35:24 AM 33.8478 -83.6536 71° East 438 504 25,000  Level Atlanta Center
Wed 07:36:24 AM 33.8850 -83.5133 72° East 438 504 25,000  Level Atlanta Center
Wed 07:37:24 AM 33.9239 -83.3728 72° East 443 510 25,000  Level Atlanta Center
Wed 07:38:24 AM 33.9606 -83.2347 72° East 443 510 25,000  Level Atlanta Center
Wed 07:39:24 AM 33.9992 -83.0917 72° East 443 510 25,000  Level Atlanta Center
Wed 07:40:24 AM 34.0439 -82.9358 71° East 443 510 25,000  Level Atlanta Center
Wed 07:41:24 AM 34.0822 -82.7922 72° East 443 510 25,000  Level Atlanta Center
Wed 07:42:24 AM 34.1203 -82.6511 72° East 443 510 25,000  Level Atlanta Center
Wed 07:43:24 AM 34.1561 -82.5100 73° East 438 504 25,000 -100 Level Atlanta Center
Wed 07:44:24 AM 34.1942 -82.3686 72° East 438 504 24,800 -500 Descending Atlanta Center
Wed 07:45:24 AM 34.2317 -82.2222 73° East 445 512 24,000 -400 Descending Atlanta Center
Wed 07:46:24 AM 34.2944 -82.0978 59° Northeast 423 487 24,000 -1,000 Level Atlanta Center
Wed 07:47:24 AM 34.3722 -82.0003 46° Northeast 416 479 22,000 -2,200 Descending Atlanta Center
Wed 07:48:24 AM 34.4497 -81.9028 46° Northeast 405 466 19,600 -2,350 Descending Atlanta Center
Wed 07:49:24 AM 34.5233 -81.8150 44° Northeast 383 441 17,300 -2,350 Descending Atlanta Center
Wed 07:50:24 AM 34.5928 -81.7250 47° Northeast 369 425 14,900 -2,386 Descending Atlanta Center
Wed 07:50:47 AM 34.6150 -81.6942 49° Northeast 356 410 14,000 -2,000 Descending Atlanta Center
Wed 07:51:24 AM 34.6539 -81.6500 43° Northeast 356 410 12,900 -1,941 Descending Atlanta Center
Wed 07:51:55 AM 34.6925 -81.6008 46° Northeast 332 382 11,800 -1,600 Descending Atlanta Center
Wed 07:52:24 AM 34.7128 -81.5725 49° Northeast 332 382 11,300 -716 Descending Atlanta Center
Wed 07:53:02 AM 34.7575 -81.5156 46° Northeast 288 331 11,000 -300 Descending Atlanta Center
Wed 07:53:24 AM 34.7675 -81.4975 56° Northeast 308 354 11,000  Level Atlanta Center
Wed 07:54:03 AM 34.7786 -81.4214 80° East 283 326 11,000 -100 Level Atlanta Center
Wed 07:54:24 AM 34.7803 -81.4011 84° East 280 322 10,900 -1,180 Descending Atlanta Center
Wed 07:55:04 AM 34.7892 -81.3375 80° East 240 276 9,800 -1,400 Descending Atlanta Center
Wed 07:55:24 AM 34.7931 -81.3172 77° East 256 295 9,500 -1,527 Descending Atlanta Center
Wed 07:55:59 AM 34.8019 -81.2561 80° East 252 290 8,400 -1,500 Descending Atlanta Center
Wed 07:56:24 AM 34.8014 -81.2308 92° East 256 295 8,000 -1,377 Descending Atlanta Center
Wed 07:57:00 AM 34.7939 -81.1731 99° East 257 296 7,000 -1,000 Descending Atlanta Center
Wed 07:57:24 AM 34.7892 -81.1503 104° East 251 289 7,000  Level Atlanta Center
Wed 07:58:01 AM 34.7836 -81.0900 96° East 248 285 7,000  Level Atlanta Center
Wed 07:58:24 AM 34.7767 -81.0675 111° Southeast 251 289 7,000 -492 Level Atlanta Center
Wed 07:59:02 AM 34.7689 -81.0019 98° East 249 287 6,500 -700 Descending Atlanta Center
Wed 07:59:24 AM 34.7644 -80.9894 113° Southeast 251 289 6,300 -484 Descending Atlanta Center
Wed 08:00:04 AM 34.7861 -80.9356 64° Northeast 221 254 6,000 -300 Descending Atlanta Center
Wed 08:00:24 AM 34.7964 -80.9303 23° Northeast 204 235 6,000  Level Atlanta Center
Wed 08:01:10 AM 34.8444 -80.9383 352° North 186 214 6,000  Level Atlanta Center
Wed 08:02:06 AM 34.8925 -80.9417 357° North 186 214 6,000 -359 Level Atlanta Center
Wed 08:03:07 AM 34.9492 -80.9472 355° North 189 217 5,300 -541 Descending Atlanta Center
Wed 08:04:08 AM 35.0033 -80.9503 357° North 203 234 4,900 -787 Descending Atlanta Center
Wed 08:05:09 AM 35.0600 -80.9558 355° North 205 236 3,700 -1,230 Descending Atlanta Center
Wed 08:06:10 AM 35.1142 -80.9614 355° North 194 223 2,400 -1,024 Descending Atlanta Center
Wed 08:07:12 AM 35.1561 -80.9650 356° North 122 140 1,600 -732 Descending Atlanta Center
Wed 08:08:13 AM 35.1917 -80.9661 359° North 123 142 900 -689 Descending Atlanta Center
Wed 08:10:00 AM 35.2000 -80.9333 158° South  Level FlightAware Approximate

Login

Don't have an account? Register now (free) for customized features, flight alerts, and more!